Home   Weather   Brønnøysund   Past weeks

Flag for Norway Past Weather in Brønnøysund, Norway — Yesterday and Last 2 Weeks

Now
50 °F

Scattered showers. Passing clouds.


Feels Like: 44 °F
Forecast: 49 / 52 °F
Wind: 18 mph from Southwest

Location: Bronnoysund / Bronnoy

Current Time: Sep 29, 2016 at 12:22:30 AM

Latest Report: Sep 28, 2016 at 11:20 PM


Visibility: N/A

Pressure: 29.39 "Hg

Humidity: 88%

Dew Point: 46 °F

Location of BrønnøysundLocation

Past Weather in Brønnøysund — Graph

°F

Brønnøysund Temperature Yesterday

Maximum temperature yesterday: 57 °F (at 1:20 PM)
Minimum temperature yesterday: 50 °F (at 6:20 AM)
Average temperature yesterday: 53 °F

High & Low Weather Summary for the Past Weeks

 TemperatureHumidityPressure
High68 °F (Sep 16, 3:20 PM)100% (Sep 14, 12:50 PM)30.21 "Hg (Sep 14, 12:50 PM)
Low46 °F (Sep 26, 11:50 PM)43% (Sep 13, 10:50 PM)29.18 "Hg (Sep 28, 3:50 PM)
Average56 °F82%30.01 "Hg
* Reported Sep 13 10:20 PM — Sep 28 10:50 PM, Brønnøysund, Weather by CustomWeather, © 2016

Note: Actual official high and low records may vary slightly from our data, if they occured in-between our weather recording intervals... More about our weather records

Advertising

Brønnøysund Weather History for the Previous 24 Hours

Scroll right to see more
 ConditionsComfort  
Time TempWeatherWind HumidityBarometerVisibility
10:50 PM
Wed, Sep 28
50 °FScattered showers. Passing clouds.22 mph94%29.39 "HgN/A
10:20 PM50 °FSprinkles. Passing clouds.21 mph94%29.36 "HgN/A
9:50 PM50 °FSprinkles. Partly cloudy.21 mph94%29.36 "HgN/A
9:20 PM50 °FRain showers. Partly cloudy.22 mph100%29.33 "Hg4 mi
8:50 PM52 °FSprinkles. Partly cloudy.22 mph94%29.30 "HgN/A
8:20 PM52 °FSprinkles. Partly cloudy.22 mph94%29.30 "HgN/A
7:50 PM52 °FPassing clouds.22 mph94%29.30 "HgN/A
6:50 PM52 °FSprinkles. Partly cloudy.21 mph88%29.24 "HgN/A
6:20 PM52 °FSprinkles. Partly sunny.12 mph100%29.21 "HgN/A
5:50 PM52 °FScattered showers. Partly sunny.16 mph94%29.21 "HgN/A
5:20 PM52 °FScattered showers. Broken clouds.20 mph100%29.18 "HgN/A
4:50 PM52 °FSprinkles. Broken clouds.24 mph88%29.18 "Hg5 mi
4:20 PM52 °FSprinkles. Broken clouds.22 mph88%29.18 "Hg5 mi
3:50 PM52 °FSprinkles. Broken clouds.20 mph88%29.18 "HgN/A
3:20 PM52 °FSprinkles. Broken clouds.18 mph82%29.21 "HgN/A
2:50 PM54 °FLight rain. Broken clouds.15 mph77%29.21 "HgN/A
2:20 PM55 °FBroken clouds.15 mph72%29.21 "HgN/A
1:50 PM55 °FBroken clouds.15 mph72%29.21 "HgN/A
1:20 PM57 °FBroken clouds.7 mph72%29.24 "HgN/A
12:50 PM55 °FBroken clouds.9 mph72%29.27 "HgN/A
12:20 PM55 °FBroken clouds.9 mph77%29.27 "HgN/A
11:50 AM55 °FBroken clouds.14 mph77%29.27 "HgN/A
11:20 AM54 °FScattered showers. Broken clouds.13 mph82%29.27 "HgN/A
10:50 AM54 °FRain showers. Partly sunny.10 mph77%29.27 "HgN/A
10:20 AM55 °FScattered showers. Scattered clouds.8 mph72%29.27 "HgN/A
9:50 AM54 °FScattered clouds.9 mph77%29.27 "HgN/A
9:20 AM55 °FSunny.5 mph72%29.27 "Hg10 mi
8:50 AM50 °FSunny.6 mph88%29.27 "Hg10 mi
8:20 AM52 °FSunny.8 mph82%29.27 "Hg10 mi
7:50 AM50 °FSunny.10 mph88%29.27 "Hg10 mi
7:20 AM52 °FSunny.7 mph88%29.30 "Hg10 mi
6:50 AM50 °FPassing clouds.8 mph94%29.30 "HgN/A
6:20 AM50 °FPassing clouds.8 mph94%29.33 "HgN/A
5:50 AM52 °FPartly cloudy.7 mph88%29.33 "HgN/A
5:20 AM52 °FPassing clouds.8 mph88%29.33 "HgN/A
4:50 AM54 °FLight rain. Overcast.10 mph82%29.36 "HgN/A
4:20 AM52 °FLight rain. Overcast.14 mph88%29.36 "HgN/A
3:50 AM52 °FLight rain. Overcast.14 mph88%29.36 "HgN/A
3:20 AM52 °FRain. Overcast.17 mph88%29.39 "HgN/A
2:50 AM52 °FLight rain. Mostly cloudy.22 mph88%29.39 "HgN/A
2:20 AM54 °FRain. Overcast.24 mph82%29.39 "HgN/A
1:50 AM54 °FSprinkles. Overcast.25 mph77%29.42 "HgN/A
1:20 AM55 °FSprinkles. Overcast.25 mph72%29.42 "HgN/A
12:50 AM55 °FLight rain. Overcast.25 mph72%29.45 "HgN/A
12:20 AM55 °FLight rain. Mostly cloudy.21 mph72%29.45 "HgN/A
Weather by CustomWeather, © 2016

See weather overviewHow to use our weather pages